User: anonymous   Login
Location: Laterina
(43.5167°N, 11.7167°E)
Time: 01:17:15
(UTC+00:00)
Language:

Cosmos 2278 Rocket - Orbit

View from above orbital plane
View from above orbital plane
View from above satellite
View from above satellite

Ground track
Ground track

The orbit data is extracted from the following two-line orbital elements,

1 23088U 94023B   20331.53534783 -.00000363 +00000-0 -16400-3 0  9994
2 23088 070.9972 160.9227 0004559 316.9639 043.1127 14.14685890373236
Epoch (UTC): 26 November 2020 12:50:54
Eccentricity: 0.0004559
inclination: 70.9972°
perigee height: 840 km
apogee height: 846 km
right ascension of ascending node: 160.9227°
argument of perigee: 316.9639°
revolutions per day: 14.14685890
mean anomaly at epoch: 43.1127°
orbit number at epoch: 37323

The dashed part of the orbit path shows where the satellite is in the earth's shadow,  

DLR